| time (UTC) | temp F | wind direction | speed MPH | gust MPH | rain 1hr in | rain 24hr in | rain mn in | humidity % | barometer mb |
| 20260507095511 | 0 | 0.0 | 0.0 | 0.00 | 0.14 | 0.02 | 1007.8 | ||
| 20260507095009 | 0 | 0.0 | 0.0 | 0.00 | 0.14 | 0.02 | 1007.9 | ||
| 20260507094523 | 0 | 0.0 | 0.0 | 0.00 | 0.14 | 0.02 | 1007.7 | ||
| 20260507094011 | 0 | 0.0 | 0.0 | 0.00 | 0.14 | 0.02 | 1007.8 | ||
| 20260507093510 | 0 | 0.0 | 0.0 | 0.00 | 0.14 | 0.02 | 1007.6 | ||
| 20260507093034 | 0 | 0.0 | 0.0 | 0.00 | 0.14 | 0.02 | 1007.6 | ||
| 20260507092515 | 0 | 0.0 | 0.0 | 0.00 | 0.14 | 0.02 | 1007.5 | ||
| 20260507092010 | 0 | 0.0 | 0.0 | 0.00 | 0.14 | 0.02 | 1007.5 | ||
| 20260507091536 | 0 | 0.0 | 0.0 | 0.00 | 0.14 | 0.02 | 1007.6 | ||
| 20260507091009 | 0 | 0.0 | 0.0 | 0.00 | 0.14 | 0.02 | 1007.5 | ||
| 20260507090512 | 0 | 0.0 | 0.0 | 0.00 | 0.14 | 0.02 | 1007.6 | ||
| 20260507090022 | 0 | 0.0 | 0.0 | 0.01 | 0.14 | 0.02 | 1007.5 | ||
| 20260507085510 | 0 | 0.0 | 0.0 | 0.01 | 0.14 | 0.02 | 1007.6 | ||
| 20260507085010 | 0 | 0.0 | 0.0 | 0.01 | 0.14 | 0.02 | 1007.8 | ||
| 20260507084541 | 0 | 0.0 | 0.0 | 0.01 | 0.14 | 0.02 | 1008.1 | ||
| 20260507084011 | 0 | 0.0 | 0.0 | 0.01 | 0.14 | 0.02 | 1008.0 | ||
| 20260507083510 | 0 | 0.0 | 0.0 | 0.01 | 0.14 | 0.02 | 1008.1 | ||
| 20260507083030 | 0 | 0.0 | 0.0 | 0.01 | 0.14 | 0.02 | 1008.0 | ||
| 20260507082510 | 0 | 0.0 | 0.0 | 0.02 | 0.14 | 0.02 | 1007.9 | ||
| 20260507082013 | 0 | 0.0 | 0.0 | 0.02 | 0.14 | 0.02 | 1008.1 | ||
| 20260507081536 | 0 | 0.0 | 0.0 | 0.02 | 0.14 | 0.02 | 1008.0 | ||
| 20260507081011 | 49 | 0.0 | 0.0 | 0.02 | 0.14 | 0.02 | 85 | 1008.1 | |
| 20260507080513 | 49 | 286 | 0.0 | 2.0 | 0.02 | 0.14 | 0.02 | 85 | 1007.9 |
| 20260507080028 | 50 | 269 | 0.0 | 2.0 | 0.01 | 0.13 | 0.01 | 85 | 1007.7 |
| 20260507075509 | 50 | 269 | 0.0 | 2.0 | 0.01 | 0.13 | 0.01 | 85 | 1007.5 |
| 20260507075009 | 50 | 269 | 0.0 | 2.0 | 0.01 | 0.13 | 0.01 | 84 | 1008.0 |
| 20260507074526 | 50 | 269 | 0.0 | 2.0 | 0.01 | 0.13 | 0.01 | 84 | 1008.1 |
| 20260507074009 | 50 | 292 | 1.0 | 4.0 | 0.01 | 0.13 | 0.01 | 83 | 1007.7 |
| 20260507073512 | 50 | 311 | 1.0 | 6.0 | 0.01 | 0.13 | 0.01 | 82 | 1007.8 |
| 20260507073016 | 51 | 302 | 1.0 | 8.0 | 0.01 | 0.13 | 0.01 | 81 | 1007.9 |
| 20260507072506 | 51 | 293 | 2.0 | 8.0 | 0.00 | 0.12 | 0.00 | 80 | 1007.7 |
| 20260507072007 | 51 | 317 | 2.0 | 7.0 | 0.00 | 0.12 | 0.00 | 80 | 1007.6 |
| 20260507071521 | 51 | 282 | 2.0 | 6.0 | 0.00 | 0.12 | 0.00 | 79 | 1007.7 |
| 20260507071009 | 51 | 289 | 3.0 | 6.0 | 0.00 | 0.12 | 0.00 | 79 | 1007.6 |
| 20260507070509 | 51 | 291 | 2.0 | 3.0 | 0.00 | 0.12 | 0.00 | 79 | 1007.4 |
| 20260507070026 | 51 | 306 | 2.0 | 3.0 | 0.00 | 0.12 | 0.00 | 79 | 1007.2 |
| 20260507065506 | 52 | 318 | 2.0 | 3.0 | 0.00 | 0.12 | 0.00 | 79 | 1007.0 |
| 20260507065012 | 52 | 282 | 0.0 | 3.0 | 0.00 | 0.12 | 0.00 | 79 | 1007.0 |
| 20260507064528 | 52 | 312 | 1.0 | 4.0 | 0.00 | 0.12 | 0.00 | 79 | 1007.1 |
| 20260507064011 | 52 | 293 | 1.0 | 4.0 | 0.00 | 0.12 | 0.00 | 79 | 1007.2 |
| 20260507063514 | 52 | 280 | 1.0 | 7.0 | 0.00 | 0.12 | 0.00 | 78 | 1007.1 |
| 20260507063028 | 52 | 295 | 2.0 | 7.0 | 0.00 | 0.12 | 0.00 | 79 | 1007.1 |
| 20260507062511 | 52 | 276 | 3.0 | 7.0 | 0.00 | 0.12 | 0.00 | 79 | 1007.2 |
| 20260507062007 | 52 | 279 | 2.0 | 6.0 | 0.00 | 0.12 | 0.00 | 79 | 1007.3 |
| 20260507061518 | 52 | 286 | 2.0 | 7.0 | 0.00 | 0.12 | 0.00 | 79 | 1007.5 |
| 20260507061006 | 53 | 294 | 3.0 | 7.0 | 0.00 | 0.12 | 0.00 | 80 | 1007.4 |
| 20260507060507 | 53 | 260 | 2.0 | 5.0 | 0.00 | 0.12 | 0.00 | 79 | 1007.4 |
| 20260507055507 | 53 | 284 | 1.0 | 9.0 | 0.00 | 0.12 | 0.00 | 79 | 1007.2 |
| 20260507055018 | 53 | 333 | 3.0 | 8.0 | 0.00 | 0.12 | 0.00 | 81 | 1007.2 |
| 20260507054524 | 53 | 317 | 2.0 | 7.0 | 0.00 | 0.12 | 0.00 | 84 | 1007.4 |
| 20260507054007 | 54 | 306 | 2.0 | 5.0 | 0.00 | 0.12 | 0.00 | 86 | 1007.6 |
| 20260507053511 | 54 | 306 | 2.0 | 5.0 | 0.00 | 0.12 | 0.00 | 86 | 1007.4 |
| 20260507053012 | 54 | 304 | 2.0 | 7.0 | 0.00 | 0.12 | 0.00 | 87 | 1007.4 |
| 20260507052504 | 54 | 283 | 3.0 | 9.0 | 0.00 | 0.12 | 0.00 | 87 | 1007.5 |
| 20260507052007 | 54 | 301 | 3.0 | 9.0 | 0.00 | 0.12 | 0.00 | 87 | 1007.6 |
| 20260507051516 | 55 | 267 | 4.0 | 8.0 | 0.00 | 0.12 | 0.00 | 87 | 1007.8 |
| 20260507051007 | 55 | 265 | 2.0 | 7.0 | 0.00 | 0.12 | 0.00 | 87 | 1007.7 |
| 20260507050508 | 55 | 289 | 1.0 | 9.0 | 0.00 | 0.12 | 0.00 | 87 | 1007.4 |
| 20260507050026 | 55 | 266 | 2.0 | 7.0 | 0.00 | 0.12 | 0.00 | 87 | 1007.3 |
| 20260507045508 | 55 | 308 | 2.0 | 5.0 | 0.00 | 0.12 | 0.00 | 87 | 1007.3 |
| 20260507045007 | 55 | 285 | 1.0 | 7.0 | 0.00 | 0.12 | 0.00 | 87 | 1007.2 |
| 20260507044525 | 55 | 308 | 2.0 | 9.0 | 0.00 | 0.12 | 0.00 | 87 | 1007.1 |
| 20260507044008 | 56 | 281 | 3.0 | 9.0 | 0.00 | 0.12 | 0.00 | 88 | 1007.2 |
| 20260507043508 | 56 | 272 | 2.0 | 6.0 | 0.00 | 0.12 | 0.00 | 88 | 1007.2 |
| 20260507043027 | 56 | 279 | 3.0 | 6.0 | 0.00 | 0.12 | 0.00 | 89 | 1007.3 |
| 20260507042512 | 56 | 268 | 2.0 | 6.0 | 0.00 | 0.12 | 0.00 | 90 | 1007.4 |
| 20260507042010 | 56 | 294 | 2.0 | 7.0 | 0.00 | 0.12 | 0.00 | 90 | 1007.5 |
| 20260507041512 | 57 | 300 | 2.0 | 8.0 | 0.00 | 0.12 | 0.00 | 91 | 1007.3 |
| 20260507041006 | 57 | 283 | 2.0 | 8.0 | 0.00 | 0.12 | 0.00 | 91 | 1007.2 |
| 20260507040506 | 57 | 297 | 2.0 | 5.0 | 0.00 | 0.12 | 0.00 | 92 | 1007.2 |
| 20260507040018 | 57 | 234 | 1.0 | 6.0 | 0.00 | 0.12 | 0.00 | 92 | 1007.3 |
| 20260507035508 | 57 | 275 | 2.0 | 6.0 | 0.00 | 0.12 | 0.12 | 92 | 1007.3 |
| 20260507035008 | 57 | 268 | 2.0 | 6.0 | 0.00 | 0.12 | 0.12 | 92 | 1007.4 |
| 20260507034526 | 57 | 268 | 3.0 | 6.0 | 0.00 | 0.12 | 0.12 | 93 | 1007.3 |
| 20260507034012 | 57 | 243 | 3.0 | 6.0 | 0.00 | 0.12 | 0.12 | 93 | 1007.4 |
| 20260507033507 | 57 | 235 | 2.0 | 5.0 | 0.00 | 0.12 | 0.12 | 93 | 1007.4 |
| 20260507033026 | 57 | 248 | 3.0 | 7.0 | 0.00 | 0.12 | 0.12 | 94 | 1007.3 |
| 20260507032512 | 58 | 229 | 3.0 | 7.0 | 0.00 | 0.12 | 0.12 | 94 | 1007.2 |
| 20260507032011 | 58 | 234 | 2.0 | 5.0 | 0.00 | 0.12 | 0.12 | 94 | 1007.0 |
| 20260507031527 | 58 | 258 | 1.0 | 5.0 | 0.00 | 0.12 | 0.12 | 94 | 1006.9 |
| 20260507031009 | 58 | 223 | 3.0 | 5.0 | 0.00 | 0.12 | 0.12 | 94 | 1007.0 |
| 20260507030509 | 58 | 253 | 2.0 | 8.0 | 0.00 | 0.12 | 0.12 | 94 | 1007.0 |
| 20260507030016 | 58 | 241 | 2.0 | 8.0 | 0.00 | 0.12 | 0.12 | 94 | 1006.9 |
| 20260507025505 | 57 | 243 | 3.0 | 8.0 | 0.00 | 0.12 | 0.12 | 94 | 1006.7 |
| 20260507025004 | 57 | 217 | 2.0 | 10.0 | 0.00 | 0.12 | 0.12 | 94 | 1006.6 |
| 20260507024519 | 57 | 248 | 2.0 | 10.0 | 0.00 | 0.12 | 0.12 | 94 | 1006.7 |
| 20260507024008 | 57 | 205 | 4.0 | 7.0 | 0.00 | 0.12 | 0.12 | 94 | 1006.6 |
| 20260507023506 | 57 | 246 | 1.0 | 7.0 | 0.00 | 0.12 | 0.12 | 94 | 1006.6 |
| 20260507023022 | 57 | 209 | 3.0 | 7.0 | 0.00 | 0.12 | 0.12 | 94 | 1006.5 |
| 20260507022510 | 57 | 246 | 2.0 | 7.0 | 0.00 | 0.12 | 0.12 | 94 | 1006.4 |
| 20260507022010 | 57 | 219 | 2.0 | 5.0 | 0.00 | 0.12 | 0.12 | 94 | 1006.4 |
| 20260507021529 | 57 | 254 | 2.0 | 6.0 | 0.00 | 0.12 | 0.12 | 94 | 1006.5 |
| 20260507021011 | 57 | 234 | 1.0 | 6.0 | 0.00 | 0.12 | 0.12 | 94 | 1006.5 |
| 20260507020508 | 57 | 252 | 2.0 | 4.0 | 0.00 | 0.12 | 0.12 | 94 | 1006.6 |
| 20260507020043 | 57 | 309 | 1.0 | 3.0 | 0.00 | 0.12 | 0.12 | 94 | 1006.6 |
| 20260507015510 | 57 | 227 | 0.0 | 3.0 | 0.00 | 0.12 | 0.12 | 94 | 1006.6 |
| 20260507015008 | 57 | 303 | 0.0 | 8.0 | 0.00 | 0.12 | 0.12 | 94 | 1006.6 |
| 20260507014517 | 57 | 234 | 1.0 | 8.0 | 0.00 | 0.12 | 0.12 | 94 | 1006.7 |
| 20260507014007 | 57 | 218 | 0.0 | 4.0 | 0.00 | 0.12 | 0.12 | 94 | 1006.6 |
| 20260507013507 | 57 | 226 | 1.0 | 5.0 | 0.00 | 0.12 | 0.12 | 94 | 1006.6 |
| 20260507013025 | 57 | 279 | 2.0 | 5.0 | 0.00 | 0.12 | 0.12 | 94 | 1006.4 |
| 20260507012507 | 57 | 240 | 1.0 | 4.0 | 0.00 | 0.12 | 0.12 | 94 | 1006.3 |
| 20260507012008 | 57 | 214 | 0.0 | 5.0 | 0.00 | 0.12 | 0.12 | 94 | 1006.3 |
| 20260507011537 | 57 | 254 | 1.0 | 5.0 | 0.00 | 0.12 | 0.12 | 94 | 1006.4 |
| 20260507011006 | 57 | 254 | 0.0 | 5.0 | 0.00 | 0.12 | 0.12 | 94 | 1006.6 |
| 20260507010510 | 57 | 217 | 2.0 | 4.0 | 0.00 | 0.12 | 0.12 | 94 | 1006.8 |
| 20260507010033 | 57 | 175 | 2.0 | 6.0 | 0.00 | 0.12 | 0.12 | 94 | 1006.7 |
| 20260507005509 | 57 | 196 | 3.0 | 6.0 | 0.00 | 0.12 | 0.12 | 94 | 1006.7 |
| 20260507005013 | 57 | 183 | 1.0 | 4.0 | 0.00 | 0.12 | 0.12 | 94 | 1006.9 |
| 20260507004527 | 57 | 299 | 1.0 | 5.0 | 0.00 | 0.12 | 0.12 | 94 | 1006.8 |
| 20260507004006 | 57 | 223 | 2.0 | 8.0 | 0.00 | 0.12 | 0.12 | 94 | 1006.8 |
| 20260507003508 | 57 | 138 | 3.0 | 8.0 | 0.00 | 0.12 | 0.12 | 94 | 1006.7 |
| 20260507003021 | 57 | 225 | 1.0 | 5.0 | 0.00 | 0.12 | 0.12 | 94 | 1006.8 |
| 20260507002509 | 57 | 211 | 2.0 | 5.0 | 0.00 | 0.12 | 0.12 | 94 | 1006.8 |
| 20260507002011 | 57 | 140 | 1.0 | 5.0 | 0.00 | 0.12 | 0.12 | 94 | 1006.9 |
| 20260507001553 | 57 | 238 | 1.0 | 7.0 | 0.00 | 0.12 | 0.12 | 94 | 1006.9 |
| 20260507001009 | 57 | 228 | 2.0 | 7.0 | 0.01 | 0.12 | 0.12 | 93 | 1006.9 |
| 20260507000511 | 57 | 155 | 2.0 | 7.0 | 0.02 | 0.12 | 0.12 | 93 | 1006.8 |
| 20260507000026 | 57 | 174 | 1.0 | 7.0 | 0.02 | 0.12 | 0.12 | 93 | 1006.7 |
| 20260506235511 | 57 | 215 | 0.0 | 4.0 | 0.02 | 0.12 | 0.12 | 93 | 1006.7 |
| 20260506235014 | 57 | 196 | 2.0 | 4.0 | 0.02 | 0.12 | 0.12 | 93 | 1006.7 |
| 20260506234528 | 57 | 277 | 0.0 | 4.0 | 0.03 | 0.12 | 0.12 | 93 | 1006.7 |
| 20260506234012 | 57 | 292 | 1.0 | 4.0 | 0.03 | 0.12 | 0.12 | 93 | 1006.6 |
| 20260506233509 | 57 | 86 | 0.0 | 5.0 | 0.03 | 0.12 | 0.12 | 93 | 1006.5 |
| 20260506233027 | 57 | 264 | 2.0 | 5.0 | 0.03 | 0.12 | 0.12 | 93 | 1006.4 |
| 20260506232508 | 57 | 289 | 1.0 | 5.0 | 0.03 | 0.12 | 0.12 | 93 | 1006.4 |
| 20260506232005 | 57 | 197 | 1.0 | 5.0 | 0.03 | 0.12 | 0.12 | 93 | 1006.4 |
| 20260506231523 | 57 | 193 | 0.0 | 4.0 | 0.03 | 0.12 | 0.12 | 93 | 1006.3 |
| 20260506231008 | 57 | 202 | 2.0 | 4.0 | 0.02 | 0.11 | 0.11 | 93 | 1006.3 |
| 20260506230515 | 57 | 178 | 1.0 | 7.0 | 0.02 | 0.10 | 0.10 | 93 | 1006.3 |
| 20260506230048 | 57 | 182 | 2.0 | 7.0 | 0.02 | 0.10 | 0.10 | 93 | 1006.3 |
| 20260506225509 | 57 | 171 | 2.0 | 5.0 | 0.02 | 0.10 | 0.10 | 93 | 1006.4 |
| 20260506225011 | 57 | 242 | 1.0 | 4.0 | 0.02 | 0.10 | 0.10 | 93 | 1006.4 |
| 20260506224526 | 57 | 175 | 1.0 | 4.0 | 0.01 | 0.09 | 0.09 | 93 | 1006.4 |
| 20260506224009 | 58 | 224 | 1.0 | 6.0 | 0.01 | 0.09 | 0.09 | 93 | 1006.4 |
| 20260506223507 | 58 | 192 | 1.0 | 6.0 | 0.01 | 0.09 | 0.09 | 93 | 1006.4 |
| 20260506223031 | 58 | 224 | 1.0 | 4.0 | 0.02 | 0.09 | 0.09 | 93 | 1006.4 |
| 20260506222513 | 58 | 238 | 2.0 | 4.0 | 0.02 | 0.09 | 0.09 | 93 | 1006.5 |
| 20260506222015 | 58 | 182 | 1.0 | 6.0 | 0.02 | 0.09 | 0.09 | 93 | 1006.6 |
| 20260506221522 | 58 | 76 | 1.0 | 6.0 | 0.02 | 0.09 | 0.09 | 92 | 1006.5 |
| 20260506221010 | 58 | 267 | 1.0 | 8.0 | 0.02 | 0.09 | 0.09 | 92 | 1006.5 |
| 20260506220507 | 58 | 137 | 2.0 | 8.0 | 0.01 | 0.08 | 0.08 | 92 | 1006.6 |
| 20260506220033 | 58 | 165 | 2.0 | 7.0 | 0.01 | 0.08 | 0.08 | 92 | 1006.7 |
| 20260506215510 | 58 | 131 | 1.0 | 6.0 | 0.01 | 0.08 | 0.08 | 92 | 1006.8 |
| 20260506215009 | 58 | 187 | 1.0 | 5.0 | 0.01 | 0.08 | 0.08 | 92 | 1006.7 |
| 20260506214525 | 58 | 168 | 1.0 | 10.0 | 0.02 | 0.08 | 0.08 | 92 | 1006.7 |
| 20260506214009 | 58 | 182 | 2.0 | 10.0 | 0.02 | 0.08 | 0.08 | 92 | 1006.7 |
| 20260506213515 | 58 | 318 | 0.0 | 4.0 | 0.02 | 0.08 | 0.08 | 92 | 1006.7 |
| 20260506213028 | 58 | 238 | 1.0 | 6.0 | 0.01 | 0.07 | 0.07 | 92 | 1006.8 |
| 20260506212510 | 58 | 103 | 2.0 | 6.0 | 0.01 | 0.07 | 0.07 | 92 | 1006.9 |
| 20260506212016 | 58 | 180 | 2.0 | 7.0 | 0.01 | 0.07 | 0.07 | 92 | 1007.0 |
| 20260506211528 | 58 | 350 | 1.0 | 9.0 | 0.01 | 0.07 | 0.07 | 92 | 1007.0 |
| 20260506211010 | 58 | 188 | 3.0 | 9.0 | 0.01 | 0.07 | 0.07 | 92 | 1007.1 |
| 20260506210515 | 59 | 194 | 1.0 | 6.0 | 0.01 | 0.07 | 0.07 | 92 | 1007.1 |
| 20260506210044 | 58 | 193 | 1.0 | 7.0 | 0.01 | 0.07 | 0.07 | 92 | 1007.1 |
| 20260506205509 | 58 | 158 | 1.0 | 7.0 | 0.01 | 0.07 | 0.07 | 91 | 1007.1 |
| 20260506205003 | 58 | 219 | 1.0 | 7.0 | 0.01 | 0.07 | 0.07 | 91 | 1007.2 |
| 20260506204505 | 58 | 141 | 2.0 | 7.0 | 0.00 | 0.06 | 0.06 | 91 | 1007.3 |
| 20260506204004 | 58 | 273 | 2.0 | 7.0 | 0.00 | 0.06 | 0.06 | 91 | 1007.3 |
| 20260506203503 | 58 | 323 | 1.0 | 7.0 | 0.00 | 0.06 | 0.06 | 91 | 1007.3 |
| 20260506203011 | 58 | 165 | 2.0 | 7.0 | 0.00 | 0.06 | 0.06 | 91 | 1007.3 |
| 20260506202503 | 58 | 179 | 1.0 | 9.0 | 0.00 | 0.06 | 0.06 | 91 | 1007.3 |
| 20260506202007 | 58 | 188 | 2.0 | 9.0 | 0.01 | 0.06 | 0.06 | 91 | 1007.3 |
| 20260506201519 | 58 | 225 | 3.0 | 9.0 | 0.02 | 0.06 | 0.06 | 91 | 1007.5 |
| 20260506201004 | 58 | 126 | 1.0 | 7.0 | 0.02 | 0.06 | 0.06 | 91 | 1007.4 |
| 20260506200504 | 58 | 161 | 2.0 | 6.0 | 0.03 | 0.06 | 0.06 | 91 | 1007.5 |
| 20260506200012 | 58 | 223 | 1.0 | 5.0 | 0.03 | 0.06 | 0.06 | 91 | 1007.6 |
| 20260506195504 | 58 | 54 | 1.0 | 6.0 | 0.04 | 0.06 | 0.06 | 91 | 1007.6 |
| 20260506195005 | 58 | 188 | 2.0 | 4.0 | 0.04 | 0.06 | 0.06 | 91 | 1007.6 |
| 20260506194511 | 58 | 100 | 1.0 | 4.0 | 0.05 | 0.06 | 0.06 | 90 | 1007.6 |
| 20260506194007 | 59 | 182 | 2.0 | 6.0 | 0.05 | 0.06 | 0.06 | 90 | 1007.6 |
| 20260506193504 | 59 | 218 | 1.0 | 6.0 | 0.06 | 0.06 | 0.06 | 90 | 1007.7 |
| 20260506193021 | 59 | 174 | 2.0 | 5.0 | 0.06 | 0.06 | 0.06 | 90 | 1007.7 |
| 20260506192503 | 59 | 207 | 2.0 | 6.0 | 0.06 | 0.06 | 0.06 | 90 | 1007.7 |
| 20260506192006 | 59 | 231 | 2.0 | 6.0 | 0.05 | 0.05 | 0.05 | 89 | 1007.7 |
| 20260506191512 | 59 | 263 | 1.0 | 6.0 | 0.04 | 0.04 | 0.04 | 90 | 1007.6 |
| 20260506191004 | 59 | 119 | 0.0 | 4.0 | 0.04 | 0.04 | 0.04 | 89 | 1007.7 |
| 20260506190509 | 60 | 189 | 1.0 | 4.0 | 0.03 | 0.03 | 0.03 | 88 | 1007.7 |
| 20260506190014 | 60 | 187 | 1.0 | 5.0 | 0.03 | 0.03 | 0.03 | 88 | 1007.8 |
| 20260506185505 | 60 | 165 | 1.0 | 5.0 | 0.02 | 0.02 | 0.02 | 87 | 1007.9 |
| 20260506185004 | 61 | 175 | 1.0 | 7.0 | 0.02 | 0.02 | 0.02 | 86 | 1007.8 |
| 20260506184511 | 61 | 300 | 2.0 | 7.0 | 0.01 | 0.01 | 0.01 | 85 | 1007.8 |
| 20260506184005 | 62 | 152 | 0.0 | 4.0 | 0.01 | 0.01 | 0.01 | 85 | 1007.9 |
| 20260506183507 | 62 | 171 | 0.0 | 4.0 | 0.00 | 0.00 | 0.00 | 84 | 1008.0 |
| 20260506183011 | 62 | 179 | 1.0 | 4.0 | 0.00 | 0.00 | 0.00 | 82 | 1008.1 |
| 20260506182508 | 63 | 142 | 1.0 | 5.0 | 0.00 | 0.00 | 0.00 | 81 | 1008.1 |
| 20260506182005 | 63 | 248 | 2.0 | 8.0 | 0.00 | 0.00 | 0.00 | 79 | 1008.2 |
| 20260506181512 | 64 | 210 | 2.0 | 8.0 | 0.00 | 0.00 | 0.00 | 78 | 1008.3 |
| 20260506181004 | 64 | 256 | 1.0 | 11.0 | 0.00 | 0.00 | 0.00 | 78 | 1008.3 |
| 20260506180504 | 64 | 190 | 1.0 | 11.0 | 0.00 | 0.00 | 0.00 | 77 | 1008.3 |
| 20260506180014 | 65 | 277 | 2.0 | 8.0 | 0.00 | 0.00 | 0.00 | 74 | 1008.4 |
| 20260506175505 | 65 | 192 | 2.0 | 8.0 | 0.00 | 0.00 | 0.00 | 72 | 1008.4 |
| 20260506175005 | 66 | 209 | 4.0 | 7.0 | 0.00 | 0.00 | 0.00 | 70 | 1008.4 |
| 20260506174514 | 67 | 197 | 3.0 | 8.0 | 0.00 | 0.00 | 0.00 | 68 | 1008.5 |
| 20260506174002 | 68 | 220 | 3.0 | 11.0 | 0.00 | 0.00 | 0.00 | 64 | 1008.5 |
| 20260506173504 | 68 | 250 | 4.0 | 11.0 | 0.00 | 0.00 | 0.00 | 62 | 1008.4 |
| 20260506173008 | 69 | 203 | 3.0 | 8.0 | 0.00 | 0.00 | 0.00 | 60 | 1008.3 |
| 20260506172502 | 70 | 204 | 3.0 | 11.0 | 0.00 | 0.00 | 0.00 | 59 | 1008.4 |
| 20260506172005 | 70 | 209 | 2.0 | 11.0 | 0.00 | 0.00 | 0.00 | 60 | 1008.4 |
| 20260506171510 | 70 | 232 | 3.0 | 14.0 | 0.00 | 0.00 | 0.00 | 59 | 1008.3 |
| 20260506171008 | 70 | 325 | 2.0 | 14.0 | 0.00 | 0.00 | 0.00 | 58 | 1008.2 |
| 20260506170505 | 71 | 279 | 3.0 | 10.0 | 0.00 | 0.00 | 0.00 | 58 | 1008.2 |
| 20260506170025 | 71 | 262 | 2.0 | 10.0 | 0.00 | 0.00 | 0.00 | 57 | 1008.3 |
| 20260506165505 | 72 | 153 | 2.0 | 8.0 | 0.00 | 0.00 | 0.00 | 57 | 1008.3 |
| 20260506165007 | 72 | 106 | 2.0 | 8.0 | 0.00 | 0.00 | 0.00 | 56 | 1008.3 |
| 20260506164535 | 73 | 225 | 2.0 | 12.0 | 0.00 | 0.00 | 0.00 | 54 | 1008.4 |
| 20260506164005 | 73 | 239 | 5.0 | 12.0 | 0.00 | 0.00 | 0.00 | 55 | 1008.5 |
| 20260506163504 | 72 | 123 | 2.0 | 12.0 | 0.00 | 0.00 | 0.00 | 59 | 1008.5 |
| 20260506163019 | 71 | 211 | 3.0 | 12.0 | 0.00 | 0.00 | 0.00 | 59 | 1008.7 |
| 20260506162508 | 70 | 156 | 2.0 | 9.0 | 0.00 | 0.00 | 0.00 | 58 | 1008.7 |
| 20260506162001 | 70 | 173 | 2.0 | 9.0 | 0.00 | 0.00 | 0.00 | 58 | 1008.8 |
| 20260506161511 | 71 | 269 | 3.0 | 8.0 | 0.00 | 0.00 | 0.00 | 58 | 1008.8 |
| 20260506161005 | 70 | 213 | 3.0 | 9.0 | 0.00 | 0.00 | 0.00 | 58 | 1009.0 |
| 20260506160506 | 70 | 213 | 4.0 | 12.0 | 0.00 | 0.00 | 0.00 | 58 | 1009.1 |
| 20260506160013 | 70 | 294 | 4.0 | 12.0 | 0.00 | 0.00 | 0.00 | 58 | 1008.9 |
| 20260506155504 | 70 | 217 | 4.0 | 11.0 | 0.00 | 0.00 | 0.00 | 58 | 1009.1 |
| 20260506155007 | 70 | 304 | 2.0 | 10.0 | 0.00 | 0.00 | 0.00 | 60 | 1009.1 |
| 20260506154521 | 70 | 187 | 4.0 | 8.0 | 0.00 | 0.00 | 0.00 | 58 | 1009.2 |
| 20260506154008 | 70 | 182 | 1.0 | 9.0 | 0.00 | 0.00 | 0.00 | 60 | 1009.3 |
| 20260506153507 | 70 | 304 | 2.0 | 12.0 | 0.00 | 0.00 | 0.00 | 60 | 1009.4 |
| 20260506153020 | 69 | 140 | 3.0 | 12.0 | 0.00 | 0.00 | 0.00 | 61 | 1009.4 |
| 20260506152505 | 69 | 95 | 2.0 | 9.0 | 0.00 | 0.00 | 0.00 | 63 | 1009.5 |
| 20260506152009 | 69 | 192 | 3.0 | 8.0 | 0.00 | 0.00 | 0.00 | 62 | 1009.7 |
| 20260506151508 | 69 | 231 | 4.0 | 8.0 | 0.00 | 0.00 | 0.00 | 61 | 1009.7 |
| 20260506151001 | 69 | 182 | 2.0 | 6.0 | 0.00 | 0.00 | 0.00 | 62 | 1009.8 |
| 20260506150504 | 70 | 214 | 2.0 | 9.0 | 0.00 | 0.00 | 0.00 | 62 | 1009.8 |
| 20260506150012 | 69 | 210 | 4.0 | 9.0 | 0.00 | 0.00 | 0.00 | 63 | 1009.8 |
| 20260506145505 | 68 | 259 | 3.0 | 8.0 | 0.00 | 0.00 | 0.00 | 64 | 1009.9 |
| 20260506145008 | 68 | 247 | 1.0 | 8.0 | 0.00 | 0.00 | 0.00 | 65 | 1010.0 |
| 20260506144523 | 68 | 249 | 3.0 | 7.0 | 0.00 | 0.00 | 0.00 | 65 | 1009.9 |
| 20260506144008 | 68 | 218 | 1.0 | 7.0 | 0.00 | 0.00 | 0.00 | 65 | 1009.8 |
| 20260506143506 | 68 | 205 | 1.0 | 8.0 | 0.00 | 0.00 | 0.00 | 66 | 1010.0 |
| 20260506143024 | 67 | 98 | 3.0 | 8.0 | 0.00 | 0.00 | 0.00 | 65 | 1009.9 |
| 20260506142510 | 67 | 182 | 2.0 | 9.0 | 0.00 | 0.00 | 0.00 | 66 | 1009.9 |
| 20260506142009 | 67 | 248 | 3.0 | 9.0 | 0.00 | 0.00 | 0.00 | 67 | 1009.9 |
| 20260506141528 | 67 | 146 | 1.0 | 7.0 | 0.00 | 0.00 | 0.00 | 67 | 1009.8 |
| 20260506141011 | 67 | 81 | 2.0 | 7.0 | 0.00 | 0.00 | 0.00 | 66 | 1009.8 |
| 20260506140505 | 67 | 128 | 2.0 | 7.0 | 0.00 | 0.00 | 0.00 | 67 | 1009.8 |
| 20260506140011 | 67 | 138 | 1.0 | 4.0 | 0.00 | 0.00 | 0.00 | 67 | 1009.7 |
| 20260506135506 | 67 | 286 | 1.0 | 4.0 | 0.00 | 0.00 | 0.00 | 68 | 1009.7 |
| 20260506135003 | 67 | 198 | 1.0 | 4.0 | 0.00 | 0.00 | 0.00 | 70 | 1009.7 |
| 20260506134516 | 66 | 275 | 2.0 | 7.0 | 0.00 | 0.00 | 0.00 | 70 | 1009.8 |
| 20260506134006 | 65 | 198 | 2.0 | 7.0 | 0.00 | 0.00 | 0.00 | 73 | 1009.8 |
| 20260506133508 | 65 | 217 | 2.0 | 8.0 | 0.00 | 0.00 | 0.00 | 73 | 1009.8 |
| 20260506133019 | 64 | 137 | 3.0 | 8.0 | 0.00 | 0.00 | 0.00 | 74 | 1009.8 |
| 20260506132510 | 64 | 318 | 1.0 | 5.0 | 0.00 | 0.00 | 0.00 | 75 | 1009.9 |
| 20260506132007 | 63 | 243 | 2.0 | 6.0 | 0.00 | 0.00 | 0.00 | 75 | 1010.2 |
| 20260506131520 | 63 | 190 | 1.0 | 6.0 | 0.00 | 0.00 | 0.00 | 76 | 1010.3 |
| 20260506131006 | 62 | 301 | 1.0 | 7.0 | 0.00 | 0.00 | 0.00 | 77 | 1010.3 |
| 20260506130508 | 62 | 175 | 3.0 | 7.0 | 0.00 | 0.00 | 0.00 | 77 | 1010.4 |
| 20260506130024 | 62 | 267 | 2.0 | 7.0 | 0.00 | 0.00 | 0.00 | 77 | 1010.4 |
| 20260506125509 | 62 | 270 | 1.0 | 7.0 | 0.00 | 0.00 | 0.00 | 78 | 1010.4 |
| 20260506125002 | 62 | 189 | 3.0 | 7.0 | 0.00 | 0.00 | 0.00 | 77 | 1010.3 |
| 20260506124511 | 62 | 198 | 3.0 | 8.0 | 0.00 | 0.00 | 0.00 | 77 | 1010.2 |
| 20260506124006 | 62 | 163 | 1.0 | 8.0 | 0.00 | 0.00 | 0.00 | 77 | 1010.2 |
| 20260506123506 | 62 | 257 | 3.0 | 7.0 | 0.00 | 0.00 | 0.00 | 76 | 1010.3 |
| 20260506123020 | 62 | 205 | 2.0 | 4.0 | 0.00 | 0.00 | 0.00 | 78 | 1010.3 |
| 20260506122506 | 61 | 298 | 1.0 | 6.0 | 0.00 | 0.00 | 0.00 | 79 | 1010.3 |
| 20260506122012 | 61 | 241 | 2.0 | 6.0 | 0.00 | 0.00 | 0.00 | 79 | 1010.3 |
| 20260506121524 | 61 | 254 | 2.0 | 6.0 | 0.00 | 0.00 | 0.00 | 79 | 1010.6 |
| 20260506121009 | 61 | 183 | 2.0 | 6.0 | 0.00 | 0.00 | 0.00 | 79 | 1010.4 |
| 20260506120507 | 61 | 64 | 2.0 | 6.0 | 0.00 | 0.00 | 0.00 | 80 | 1010.3 |
| 20260506120043 | 60 | 291 | 3.0 | 6.0 | 0.00 | 0.00 | 0.00 | 80 | 1010.3 |
| 20260506115512 | 60 | 190 | 2.0 | 10.0 | 0.00 | 0.00 | 0.00 | 81 | 1010.2 |
| 20260506115007 | 60 | 162 | 3.0 | 10.0 | 0.00 | 0.00 | 0.00 | 81 | 1010.3 |
| 20260506114522 | 59 | 197 | 3.0 | 10.0 | 0.00 | 0.00 | 0.00 | 82 | 1010.3 |
| 20260506114005 | 59 | 251 | 2.0 | 7.0 | 0.00 | 0.00 | 0.00 | 82 | 1010.5 |
| 20260506113510 | 59 | 202 | 1.0 | 6.0 | 0.00 | 0.00 | 0.00 | 83 | 1010.6 |
| 20260506113016 | 58 | 276 | 2.0 | 7.0 | 0.00 | 0.00 | 0.00 | 82 | 1010.6 |
| 20260506112507 | 59 | 273 | 1.0 | 7.0 | 0.00 | 0.00 | 0.00 | 82 | 1010.5 |
| 20260506112007 | 59 | 265 | 3.0 | 6.0 | 0.00 | 0.00 | 0.00 | 82 | 1010.5 |
| 20260506111519 | 58 | 186 | 2.0 | 0.0 | 0.00 | 0.00 | 0.00 | 83 | 1011.0 |
| 20260506111007 | 0 | 0.0 | 0.0 | 0.00 | 0.00 | 0.00 | 1010.8 | ||
| 20260506110507 | 0 | 0.0 | 0.0 | 0.00 | 0.00 | 0.00 | 1010.7 | ||
| 20260506110025 | 0 | 0.0 | 0.0 | 0.00 | 0.00 | 0.00 | 1010.6 | ||
| 20260506105508 | 0 | 0.0 | 0.0 | 0.00 | 0.00 | 0.00 | 1010.7 | ||
| 20260506105006 | 0 | 0.0 | 0.0 | 0.00 | 0.00 | 0.00 | 1010.5 | ||
| 20260506104536 | 0 | 0.0 | 0.0 | 0.00 | 0.00 | 0.00 | 1010.6 | ||
| 20260506104011 | 0 | 0.0 | 0.0 | 0.00 | 0.00 | 0.00 | 1010.5 | ||
| 20260506103508 | 0 | 0.0 | 0.0 | 0.00 | 0.00 | 0.00 | 1010.4 | ||
| 20260506103036 | 0 | 0.0 | 0.0 | 0.00 | 0.00 | 0.00 | 1010.3 | ||
| 20260506102516 | 0 | 0.0 | 0.0 | 0.00 | 0.00 | 0.00 | 1010.3 | ||
| 20260506102010 | 0 | 0.0 | 0.0 | 0.00 | 0.00 | 0.00 | 1010.3 | ||
| 20260506101525 | 0 | 0.0 | 0.0 | 0.00 | 0.00 | 0.00 | 1010.3 | ||
| 20260506101009 | 0 | 0.0 | 0.0 | 0.00 | 0.00 | 0.00 | 1010.3 | ||
| 20260506100511 | 0 | 0.0 | 0.0 | 0.00 | 0.00 | 0.00 | 1010.3 | ||
| 20260506100027 | 0 | 0.0 | 0.0 | 0.00 | 0.00 | 0.00 | 1010.3 |